Regional Weather Roundup
Issued by NWS

Home | Current Version | Previous Version | Text Only | Print | Product List | Glossary Off
Versions: 1 2 3 4 5 6 7 8 9 10 11 12 13 14 15 16 17 18 19 20 21 22 23 24 25 26 27 28 29 30 31 32 33 34 35 36 37 38 39 40 41 42 43 44 45 46 47 48 49 50

000
ASUS43 KMPX 221310
RWRMN
WEATHER ROUNDUP FOR MINNESOTA
NATIONAL WEATHER SERVICE TWIN CITIES/CHANHASSEN MN
800 AM CDT TUE JUL 22 2014


NOTE: "FAIR" INDICATES FEW OR NO CLOUDS BELOW 12,000 FEET WITH NO
SIGNIFICANT WEATHER AND/OR OBSTRUCTIONS TO VISIBILITY. N/A MEANS
CURRENT SKY AND/OR WEATHER CONDITIONS ARE NOT AVAILABLE.

MNZ060>063-068>070-221400-
   Twin Cities Metro

CITY           SKY/WX    TMP DP  RH WIND       PRES   REMARKS
TWIN CITIES    MOSUNNY   74  65  73 W12       29.93R
ST PAUL        MOSUNNY   74  65  73 MISG      29.92R
CRYSTAL        SUNNY     75  64  68 NW15      29.92R
BLAINE         MOSUNNY   73  66  78 W16G26    29.92R
LAKEVILLE      SUNNY     73  64  73 NW10      29.94R
EDEN PRAIRIE   SUNNY     74  64  71 NW13      29.94R
SOUTH ST PAUL  SUNNY     75  63  66 NW8G16    29.93R
LAKE ELMO      FAIR      73  64  73 W9        29.93R
$$
MNZ001>005-007-008-013>017-022>024-027-028-221400-
   Northwest Minnesota

CITY           SKY/WX    TMP DP  RH WIND       PRES   REMARKS
BEMIDJI        CLOUDY    62  60  92 NW15      29.98R
HALLOCK        SUNNY     63  59  88 N9        30.03R
ROSEAU         SUNNY     61  55  82 NW9       29.99R
WARROAD        MOSUNNY   59  55  88 NW10G16   29.98R
THIEF RVR FALL MOSUNNY   63  59  88 NW12      30.02R
FOSSTON        MOSUNNY   61  59  94 NW10      30.03R
DETROIT LAKES  PTSUNNY   63  61  94 NW14G20   30.04R
MOORHEAD       SUNNY     66  64  94 NW10      30.05R
PARK RAPIDS    CLOUDY    64  62  93 NW14G22   29.99R
$$
MNZ006-009>011-018-025>026-221400-
   North Central Minnesota

CITY           SKY/WX    TMP DP  RH WIND       PRES   REMARKS
BAUDETTE       PTSUNNY   63  57  81 N14       29.96R
FLAG ISLAND    MOSUNNY   63  55  77 NW17      29.95R
INTL FALLS     CLOUDY    64  62  93 NW9       29.88R
WASKISH        PTSUNNY   63  61  94 NW9G17    29.96R
BIG FORK       CLOUDY    64  63  94 W7        29.90R
LONGVILLE      RAIN      64  63  94 NW10G18   29.96R
GRAND RAPIDS   CLOUDY    66  61  82 NW14G23   29.92R
CRANE LAKE       N/A     64  63  94 NW8       29.83
ORR            CLOUDY    64  61  88 NW15G22   29.83R
COOK           CLOUDY    64  64 100 W9        29.85R
$$
MNZ012-019>021-037-221400-
   Northeast Minnesota

CITY           SKY/WX    TMP DP  RH WIND       PRES   REMARKS
DULUTH         CLOUDY    69  63  81 NW21G32   29.82R
ELY            DRIZZLE   66  64  94 NW10G18   29.78R
HIBBING        CLOUDY    68  63  84 NW17G29   29.86R
DULUTH HARBOR  CLOUDY    72  66  83 W17       29.81R
TWO HARBORS    CLOUDY    66  63  88 W12G24    29.75R
SILVER BAY     CLOUDY    66  66 100 SW7       29.73R FOG
GRAND MARAIS     N/A     53  52  96 CALM      29.70R
G MARAIS ARPRT CLOUDY    63  59  88 SW3       29.73S
$$
MNZ029>031-032-039>041-046>048-054>057-064-221400-
   West Central Minnesota

CITY           SKY/WX    TMP DP  RH WIND       PRES   REMARKS
FERGUS FALLS   CLOUDY    64  61  88 N17G23    30.02R
WHEATON        PTSUNNY   64  61  88 NW15G21   30.07R
MORRIS         PTSUNNY   66  64  94 NW13G18   30.03R
ALEXANDRIA     CLOUDY    68  64  87 NW13      30.02R
ELBOW LAKE     CLOUDY    66  63  92 NW13G21   30.02R
WADENA         DRIZZLE   64  63  94 NW16G22   30.00R
GLENWOOD       CLOUDY    66  64  94 NW10      30.02R
APPLETON       MOSUNNY   70  64  83 NW7       30.02R
BENSON         PTSUNNY   68  64  88 NW9       30.03R
MADISON        PTSUNNY   72  66  83 NW9       30.03S
WILLMAR        FAIR      72  63  73 NW17      30.02R
$$
MNZ033>034-036-042>043-049>051-058-059-221400-
   Central Minnesota

CITY           SKY/WX    TMP DP  RH WIND       PRES   REMARKS
ST CLOUD       SUNNY     73  63  70 NW18      29.96R
SAUK CENTRE    CLOUDY    68  63  83 NW13      30.00R
PAYNESVILLE    RAIN      67  62  83 W13G18    29.98F
AITKIN         CLOUDY    70  63  78 W9        29.92R
PINE RIVER     CLOUDY    66  63  88 W10G18    29.99R
BRAINERD       PTSUNNY   66  62  87 NW14G23   29.96R
STAPLES        PTSUNNY   66  63  88 NW15G23   29.98R
LONG PRAIRIE   PTSUNNY   66  61  82 W7G17     30.00R
LITTLE FALLS   SUNNY     68  61  77 NW10G21   29.96R
LITCHFIELD     SUNNY     72  66  83 NW13G21   29.98R
BUFFALO        SUNNY     72  63  73 NW14G21   29.96R
MAPLE LAKE     SUNNY     72  65  80 NW12G18   29.97R
$$
MNZ037-044-045-052-053-221400-
   East Central Minnesota

CITY           SKY/WX    TMP DP  RH WIND       PRES   REMARKS
PRINCETON      PTSUNNY   72  64  78 W15       29.95R
MORA           MOSUNNY   70  64  83 W12G17    29.94R
CAMBRIDGE      PTSUNNY   72  61  68 NW14G20   29.91R
RUSH CITY      CLOUDY    70  64  83 W8        29.91R
MOOSE LAKE     CLOUDY    70  63  78 W8        29.88R
HINCKLEY       PTSUNNY   72  66  83 W12G18    29.91R
CLOQUET        PTSUNNY   70  63  78 W18G24    29.86R
MCGREGOR       CLOUDY    68  64  88 W14G21    29.92R
$$
MNZ071>073-080-081-089-090-097-098-221400-
   Southwest Minnesota

CITY           SKY/WX    TMP DP  RH WIND       PRES   REMARKS
MONTEVIDEO     PTSUNNY   70  64  83 N13       30.02S
GRANITE FALLS  PTSUNNY   68  63  84 NW14G23   29.99F
CANBY          CLOUDY    69  64  84 NW8       30.03S
MARSHALL       CLOUDY    68  63  83 N10G24    30.00S
REDWOOD FALLS  CLOUDY    69  64  84 N17G26    29.93F
OLIVIA         PTSUNNY   70  63  78 NW12G20   29.99S
PIPESTONE      CLOUDY    68  63  83 NE10      30.00R
WINDOM         PTSUNNY   70  64  83 N5        29.99F
WORTHINGTON    PTSUNNY   70  63  78 N6        30.01F
TRACY          CLOUDY    69  64  86 N10G17    29.99F
SLAYTON        CLOUDY    67  64  87 CALM      30.01F
$$
MNZ065>067-074>077-082>085-091>093-221400-
   South Central Minnesota

CITY           SKY/WX    TMP DP  RH WIND       PRES   REMARKS
MANKATO        PTSUNNY   72  63  73 NW16G22   29.98R
NEW ULM        PTSUNNY   70  66  88 N8G31     29.94F
ST JAMES       MOSUNNY   72  64  78 NW9G17    30.00S
FAIRMONT       MOSUNNY   73  63  68 NW14      30.01R
GLENCOE        MOSUNNY   73  63  71 W12G17    29.98R
FARIBAULT      MOSUNNY   79  61  53 NW14G23   29.96R
OWATONNA       SUNNY     77  64  65 NW12G18   29.97R
WASECA         MOSUNNY   72  59  64 NW10      30.00R
ALBERT LEA     MOSUNNY   79  72  78 NW10G25   29.97R
$$
MNZ078>079-086>088-094>096-221400-
   Southeast Minnesota

CITY           SKY/WX    TMP DP  RH WIND       PRES   REMARKS
ROCHESTER      CLOUDY    78  74  87 W14       29.95R FOG
RED WING       SUNNY     82  70  65 W10G18    29.89R
STANTON        SUNNY     76  64  65 NW15G23   29.92R
DODGE CENTER   PTSUNNY   79  75  89 W16       29.96R
WINONA         PTSUNNY   77  72  83 W3        29.89R
AUSTIN         CLOUDY    79  75  89 W10       29.96R FOG
PRESTON        CLOUDY    74  75 100 SW10      29.93S FOG
$$
ABBREVIATIONS USED IN REMARKS
   TC - TEMPERATURES IN CELSIUS
  WCI - WIND CHILL INDEX
   HX - HEAT INDEX
  VSB - VISIBILITY
$$



USA.gov is the U.S. government's official web portal to all federal, state and local government web resources and services.